Location: Fayetteville
(35.0530°N, 78.8790°W)
Time: 16:43:46
(UTC-05:00)

Hubble Space Telescope - Pass Details

Date: 01 December 2021
Orbit: 534 x 538 km, 28.5° (Epoch: 28 January)

Event Time Altitude Azimuth Distance (km) Brightness Sun altitude
Exits shadow 05:25:15 25° 212° (SSW) 1,091 2.1 -20.1°
Maximum altitude 05:26:09 28° 189° (S) 1,025 2.2 -19.9°
Drops below altitude 10° 05:29:40 10° 130° (SE) 1,773 4.3 -19.2°
Sets 05:32:09 0° 118° (ESE) 2,663 5.8 -18.7°
